When you browse on this site, cookies collect data to enhance your experience and personalize the content and advertising you see.
Visit our Privacy Policy to learn more. By continuing to use the site, you agree to this use of cookies and data.
  • In Sweden
  • List of Countries
  • For 7 days
  • Water Temperature
  • Weather Map
  • Weather Widgets
  • user-avatar
    Login

    Hourly Weather Smeshovo

    Today, 16 December, Monday

    Time Temperature Precipitation Wind Pressure Humidity
    00:00 0°C° 0 mm 4 mps 740 mmHg 88%
    01:00 0°C° 0 mm 4 mps 740 mmHg 89%
    02:00 0°C° 0 mm 4 mps 740 mmHg 91%
    03:00 0°C° 0.2 mm 4 mps 739 mmHg 90%
    04:00 +1°C° 0.2 mm 5 mps 739 mmHg 89%
    05:00 +1°C° 0.2 mm 5 mps 739 mmHg 88%
    06:00 +1°C° 0.2 mm 5 mps 738 mmHg 87%
    07:00 +1°C° 0.2 mm 5 mps 738 mmHg 87%
    08:00 +1°C° 0.2 mm 6 mps 738 mmHg 86%
    09:00 +1°C° 0.4 mm 6 mps 738 mmHg 85%
    10:00 +2°C° 0.4 mm 6 mps 738 mmHg 84%
    11:00 +2°C° 0.4 mm 7 mps 739 mmHg 83%
    12:00 +2°C° 0.1 mm 7 mps 739 mmHg 82%
    13:00 +2°C° 0.1 mm 7 mps 740 mmHg 81%
    14:00 +2°C° 0.1 mm 7 mps 740 mmHg 79%
    15:00 +2°C° 0.1 mm 7 mps 741 mmHg 79%
    16:00 +1°C° 0.1 mm 6 mps 742 mmHg 78%
    17:00 +1°C° 0.1 mm 6 mps 743 mmHg 77%
    18:00 +1°C° 0 mm 5 mps 744 mmHg 80%
    19:00 +1°C° 0 mm 4 mps 745 mmHg 82%
    20:00 +1°C° 0 mm 4 mps 746 mmHg 85%
    21:00 +1°C° 0 mm 4 mps 746 mmHg 86%
    22:00 +1°C° 0 mm 3 mps 746 mmHg 88%
    23:00 +1°C° 0 mm 3 mps 747 mmHg 89%

    Tomorrow, 17 December, Tuesday

    Time Temperature Precipitation Wind Pressure Humidity
    00:00 +1°C° 0 mm 3 mps 747 mmHg 89%
    01:00 +1°C° 0 mm 3 mps 747 mmHg 90%
    02:00 +1°C° 0 mm 3 mps 747 mmHg 90%
    03:00 +1°C° 0 mm 3 mps 747 mmHg 89%
    04:00 0°C° 0 mm 4 mps 746 mmHg 88%
    05:00 0°C° 0 mm 4 mps 746 mmHg 87%
    06:00 0°C° 0.3 mm 4 mps 745 mmHg 89%
    07:00 +1°C° 0.3 mm 3 mps 745 mmHg 92%
    08:00 +2°C° 0.3 mm 3 mps 745 mmHg 94%
    09:00 +2°C° 0.3 mm 3 mps 745 mmHg 94%
    10:00 +2°C° 0.3 mm 3 mps 745 mmHg 93%
    11:00 +2°C° 0.3 mm 3 mps 745 mmHg 93%
    12:00 +2°C° 0 mm 3 mps 745 mmHg 92%
    13:00 +4°C° 0 mm 2 mps 745 mmHg 92%
    14:00 +4°C° 0 mm 2 mps 745 mmHg 92%
    15:00 +3°C° 0 mm 2 mps 746 mmHg 93%
    16:00 +3°C° 0 mm 2 mps 746 mmHg 95%
    17:00 +4°C° 0 mm 1 mps 746 mmHg 96%
    18:00 +4°C° 0 mm 1 mps 746 mmHg 96%
    19:00 +4°C° 0 mm 1 mps 746 mmHg 97%
    20:00 +4°C° 0 mm 1 mps 747 mmHg 97%
    21:00 +4°C° 0 mm 1 mps 747 mmHg 97%
    22:00 +4°C° 0 mm 1 mps 747 mmHg 97%
    23:00 +4°C° 0 mm 1 mps 747 mmHg 96%

    Day after tomorrow, 18 December, Wednesday

    Time Temperature Precipitation Wind Pressure Humidity
    00:00 +4°C° 0 mm 1 mps 747 mmHg 96%
    01:00 +3°C° 0 mm 2 mps 747 mmHg 96%
    02:00 +4°C° 0 mm 2 mps 747 mmHg 96%
    03:00 +4°C° 0 mm 2 mps 747 mmHg 96%
    04:00 +4°C° 0 mm 2 mps 746 mmHg 96%
    05:00 +4°C° 0 mm 2 mps 746 mmHg 96%
    06:00 +3°C° 0 mm 3 mps 746 mmHg 96%
    07:00 +3°C° 0 mm 3 mps 745 mmHg 95%
    08:00 +3°C° 0 mm 3 mps 745 mmHg 95%
    09:00 +3°C° 0 mm 3 mps 745 mmHg 94%
    10:00 +3°C° 0 mm 4 mps 745 mmHg 92%
    11:00 +3°C° 0 mm 4 mps 745 mmHg 91%
    12:00 +4°C° 0 mm 4 mps 744 mmHg 90%
    13:00 +4°C° 0 mm 4 mps 744 mmHg 89%
    14:00 +4°C° 0 mm 3 mps 744 mmHg 88%
    15:00 +4°C° 0 mm 4 mps 743 mmHg 88%
    16:00 +4°C° 0 mm 4 mps 743 mmHg 89%
    17:00 +4°C° 0 mm 4 mps 743 mmHg 89%
    18:00 +3°C° 0 mm 5 mps 743 mmHg 89%
    19:00 +5°C° 0 mm 5 mps 743 mmHg 89%
    20:00 +5°C° 0 mm 5 mps 742 mmHg 89%
    21:00 +5°C° 0 mm 5 mps 743 mmHg 85%
    22:00 +5°C° 0 mm 5 mps 743 mmHg 82%
    23:00 +4°C° 0 mm 6 mps 743 mmHg 78%

    19 December, Thursday

    Time Temperature Precipitation Wind Pressure Humidity
    00:00 +3°C° 0 mm 6 mps 743 mmHg 79%
    01:00 +2°C° 0 mm 6 mps 743 mmHg 79%
    02:00 +1°C° 0 mm 6 mps 744 mmHg 80%
    03:00 +1°C° 0 mm 6 mps 744 mmHg 79%
    04:00 +1°C° 0 mm 6 mps 744 mmHg 78%
    05:00 +1°C° 0 mm 6 mps 744 mmHg 76%
    06:00 +1°C° 0 mm 6 mps 745 mmHg 76%
    07:00 +1°C° 0 mm 6 mps 745 mmHg 76%
    08:00 +1°C° 0 mm 6 mps 745 mmHg 76%
    09:00 +1°C° 0 mm 6 mps 746 mmHg 76%
    10:00 +1°C° 0 mm 6 mps 747 mmHg 75%
    11:00 +1°C° 0 mm 6 mps 747 mmHg 75%
    12:00 +1°C° 0 mm 5 mps 748 mmHg 75%
    13:00 +1°C° 0 mm 4 mps 748 mmHg 76%
    14:00 +1°C° 0 mm 4 mps 749 mmHg 76%
    15:00 0°C° 0 mm 4 mps 749 mmHg 80%
    16:00 +1°C° 0 mm 3 mps 750 mmHg 83%
    17:00 0°C° 0 mm 3 mps 750 mmHg 86%
    18:00 0°C° 0 mm 3 mps 750 mmHg 89%
    19:00 -1°C° 0 mm 2 mps 750 mmHg 91%
    20:00 -1°C° 0 mm 2 mps 751 mmHg 93%
    21:00 -1°C° 0 mm 2 mps 751 mmHg 94%
    22:00 -1°C° 0 mm 2 mps 751 mmHg 94%
    23:00 -2°C° 0 mm 2 mps 751 mmHg 95%

    20 December, Friday

    Time Temperature Precipitation Wind Pressure Humidity
    00:00 -2°C° 0 mm 2 mps 751 mmHg 95%
    01:00 0°C° 0 mm 1 mps 751 mmHg 95%
    02:00 0°C° 0 mm 1 mps 751 mmHg 95%
    03:00 0°C° 0 mm 1 mps 751 mmHg 94%
    04:00 0°C° 0 mm 1 mps 751 mmHg 94%
    05:00 0°C° 0 mm 1 mps 751 mmHg 94%
    06:00 0°C° 0 mm 1 mps 751 mmHg 92%
    07:00 0°C° 0 mm 1 mps 751 mmHg 91%
    08:00 0°C° 0 mm 1 mps 751 mmHg 90%
    09:00 0°C° 0 mm 1 mps 752 mmHg 86%
    10:00 +1°C° 0 mm 1 mps 752 mmHg 83%
    11:00 +1°C° 0 mm 1 mps 752 mmHg 80%
    12:00 +1°C° 0 mm 1 mps 751 mmHg 79%
    13:00 +2°C° 0 mm 1 mps 751 mmHg 78%
    14:00 +2°C° 0 mm 1 mps 751 mmHg 76%
    15:00 +1°C° 0 mm 1 mps 751 mmHg 78%
    16:00 +1°C° 0 mm 1 mps 751 mmHg 80%
    17:00 0°C° 0 mm 1 mps 751 mmHg 82%
    18:00 -2°C° 0 mm 2 mps 750 mmHg 81%
    19:00 -2°C° 0 mm 2 mps 750 mmHg 81%
    20:00 -2°C° 0 mm 2 mps 750 mmHg 80%
    21:00 -2°C° 0 mm 2 mps 749 mmHg 79%
    22:00 -2°C° 0 mm 2 mps 749 mmHg 77%
    23:00 -2°C° 0 mm 2 mps 749 mmHg 76%

    21 December, Saturday

    Time Temperature Precipitation Wind Pressure Humidity
    00:00 -2°C° 0 mm 2 mps 749 mmHg 74%
    01:00 -2°C° 0 mm 2 mps 748 mmHg 73%
    02:00 -2°C° 0 mm 2 mps 748 mmHg 71%
    03:00 -2°C° 0 mm 3 mps 748 mmHg 70%
    04:00 -2°C° 0 mm 3 mps 748 mmHg 69%
    05:00 -2°C° 0 mm 3 mps 747 mmHg 68%
    06:00 -2°C° 0 mm 3 mps 747 mmHg 66%
    07:00 -2°C° 0 mm 3 mps 747 mmHg 64%
    08:00 -2°C° 0 mm 3 mps 747 mmHg 62%
    09:00 -1°C° 0 mm 3 mps 747 mmHg 59%
    10:00 -1°C° 0 mm 3 mps 747 mmHg 57%
    11:00 -1°C° 0 mm 3 mps 747 mmHg 55%
    12:00 -1°C° 0 mm 3 mps 747 mmHg 54%
    13:00 0°C° 0 mm 3 mps 746 mmHg 54%
    14:00 0°C° 0 mm 3 mps 746 mmHg 53%
    15:00 0°C° 0 mm 3 mps 746 mmHg 55%
    16:00 -1°C° 0 mm 3 mps 746 mmHg 58%
    17:00 -1°C° 0 mm 3 mps 746 mmHg 60%
    18:00 -1°C° 0 mm 3 mps 746 mmHg 62%
    19:00 -1°C° 0 mm 3 mps 745 mmHg 65%
    20:00 -1°C° 0 mm 4 mps 745 mmHg 67%
    21:00 -1°C° 0 mm 4 mps 745 mmHg 69%
    22:00 -1°C° 0 mm 4 mps 745 mmHg 71%
    23:00 -1°C° 0 mm 4 mps 745 mmHg 74%
    Show more